When you browse on this site, cookies collect data to enhance your experience and personalize the content and advertising you see.
Visit our Privacy Policy to learn more. By continuing to use the site, you agree to this use of cookies and data.
  • In Hungary
  • List of Countries
  • For 7 days
  • Water Temperature
  • Satellite Maps
  • Weather Map
  • News
  • Weather Widgets
  • user-avatar
    Login

    Hourly Weather Priego de Cordoba

    Today, 21 January, Monday

    Time Temperature Precipitation Wind Pressure Humidity
    00:00 +4°C° 0 mm 0 mps 705 mmHg 79%
    01:00 +3°C° 0 mm 0 mps 705 mmHg 80%
    02:00 +3°C° 0 mm 0 mps 705 mmHg 80%
    03:00 +3°C° 0 mm 0 mps 705 mmHg 81%
    04:00 +3°C° 0 mm 1 mps 705 mmHg 81%
    05:00 +3°C° 0 mm 1 mps 706 mmHg 81%
    06:00 +3°C° 0 mm 1 mps 706 mmHg 82%
    07:00 +4°C° 0 mm 1 mps 706 mmHg 78%
    08:00 +4°C° 0 mm 1 mps 706 mmHg 75%
    09:00 +5°C° 0 mm 1 mps 707 mmHg 72%
    10:00 +7°C° 0 mm 1 mps 707 mmHg 66%
    11:00 +7°C° 0 mm 2 mps 707 mmHg 60%
    12:00 +9°C° 0 mm 3 mps 707 mmHg 54%
    13:00 +9°C° 0 mm 3 mps 707 mmHg 53%
    14:00 +9°C° 0 mm 3 mps 707 mmHg 51%
    15:00 +9°C° 0 mm 3 mps 707 mmHg 50%
    16:00 +8°C° 0 mm 2 mps 707 mmHg 55%
    17:00 +6°C° 0 mm 2 mps 707 mmHg 60%
    18:00 +6°C° 0 mm 1 mps 707 mmHg 65%
    19:00 +6°C° 0 mm 1 mps 707 mmHg 67%
    20:00 +5°C° 0 mm 1 mps 707 mmHg 68%
    21:00 +4°C° 0 mm 0 mps 707 mmHg 70%
    22:00 +3°C° 0 mm 0 mps 708 mmHg 71%
    23:00 +4°C° 0 mm 1 mps 708 mmHg 72%

    Tomorrow, 22 January, Tuesday

    Time Temperature Precipitation Wind Pressure Humidity
    00:00 +3°C° 0 mm 1 mps 708 mmHg 73%
    01:00 +3°C° 0 mm 1 mps 708 mmHg 73%
    02:00 +3°C° 0 mm 1 mps 707 mmHg 74%
    03:00 +3°C° 0 mm 1 mps 707 mmHg 74%
    04:00 +3°C° 0 mm 1 mps 707 mmHg 75%
    05:00 +2°C° 0 mm 1 mps 707 mmHg 75%
    06:00 +1°C° 0 mm 0 mps 707 mmHg 75%
    07:00 +3°C° 0 mm 1 mps 707 mmHg 73%
    08:00 +4°C° 0 mm 1 mps 707 mmHg 71%
    09:00 +5°C° 0 mm 1 mps 707 mmHg 68%
    10:00 +6°C° 0 mm 1 mps 707 mmHg 65%
    11:00 +7°C° 0 mm 2 mps 707 mmHg 62%
    12:00 +8°C° 0 mm 3 mps 707 mmHg 59%
    13:00 +8°C° 0 mm 3 mps 706 mmHg 60%
    14:00 +7°C° 0 mm 4 mps 705 mmHg 60%
    15:00 +7°C° 0 mm 4 mps 705 mmHg 60%
    16:00 +7°C° 0.1 mm 3 mps 704 mmHg 66%
    17:00 +7°C° 0.1 mm 3 mps 704 mmHg 72%
    18:00 +6°C° 0.1 mm 2 mps 704 mmHg 78%
    19:00 +6°C° 0.6 mm 2 mps 704 mmHg 82%
    20:00 +6°C° 0.6 mm 2 mps 704 mmHg 86%
    21:00 +5°C° 0.6 mm 3 mps 704 mmHg 90%
    22:00 +5°C° 0.5 mm 3 mps 704 mmHg 92%
    23:00 +5°C° 0.5 mm 3 mps 704 mmHg 94%

    Day after tomorrow, 23 January, Wednesday

    Time Temperature Precipitation Wind Pressure Humidity
    00:00 +5°C° 0.5 mm 3 mps 704 mmHg 96%
    01:00 +4°C° 0 mm 3 mps 704 mmHg 96%
    02:00 +5°C° 0 mm 2 mps 704 mmHg 96%
    03:00 +4°C° 0 mm 2 mps 704 mmHg 96%
    04:00 +4°C° 0 mm 2 mps 704 mmHg 96%
    05:00 +4°C° 0 mm 2 mps 704 mmHg 95%
    06:00 +4°C° 0 mm 2 mps 704 mmHg 95%
    07:00 +4°C° 0 mm 2 mps 704 mmHg 93%
    08:00 +4°C° 0 mm 2 mps 705 mmHg 91%
    09:00 +4°C° 0 mm 2 mps 705 mmHg 88%
    10:00 +5°C° 0 mm 2 mps 704 mmHg 87%
    11:00 +5°C° 0 mm 2 mps 704 mmHg 86%
    12:00 +4°C° 0 mm 3 mps 704 mmHg 85%
    13:00 +5°C° 0.1 mm 3 mps 703 mmHg 86%
    14:00 +6°C° 0.1 mm 2 mps 703 mmHg 87%
    15:00 +6°C° 0.1 mm 2 mps 702 mmHg 89%
    16:00 +7°C° 0.1 mm 2 mps 702 mmHg 89%
    17:00 +7°C° 0.1 mm 2 mps 703 mmHg 89%
    18:00 +7°C° 0.1 mm 2 mps 703 mmHg 89%
    19:00 +7°C° 0 mm 2 mps 703 mmHg 90%
    20:00 +7°C° 0 mm 2 mps 703 mmHg 91%
    21:00 +6°C° 0 mm 2 mps 703 mmHg 92%
    22:00 +6°C° 0 mm 2 mps 703 mmHg 93%
    23:00 +6°C° 0 mm 2 mps 703 mmHg 94%

    24 January, Thursday

    Time Temperature Precipitation Wind Pressure Humidity
    00:00 +5°C° 0 mm 2 mps 703 mmHg 95%
    01:00 +5°C° 0 mm 2 mps 703 mmHg 96%
    02:00 +6°C° 0 mm 1 mps 703 mmHg 96%
    03:00 +6°C° 0 mm 1 mps 702 mmHg 96%
    04:00 +6°C° 0 mm 1 mps 702 mmHg 96%
    05:00 +6°C° 0 mm 1 mps 702 mmHg 96%
    06:00 +6°C° 0 mm 1 mps 702 mmHg 96%
    07:00 +6°C° 0 mm 1 mps 703 mmHg 94%
    08:00 +7°C° 0 mm 1 mps 703 mmHg 93%
    09:00 +7°C° 0 mm 1 mps 704 mmHg 91%
    10:00 +7°C° 0 mm 2 mps 704 mmHg 80%
    11:00 +9°C° 0 mm 3 mps 705 mmHg 70%
    12:00 +11°C° 0 mm 4 mps 705 mmHg 59%
    13:00 +10°C° 0 mm 5 mps 705 mmHg 57%
    14:00 +9°C° 0 mm 5 mps 704 mmHg 56%
    15:00 +9°C° 0 mm 5 mps 704 mmHg 54%
    16:00 +8°C° 0 mm 4 mps 704 mmHg 59%
    17:00 +8°C° 0 mm 3 mps 704 mmHg 64%
    18:00 +8°C° 0 mm 1 mps 705 mmHg 68%
    19:00 +7°C° 0 mm 1 mps 705 mmHg 69%
    20:00 +7°C° 0 mm 1 mps 706 mmHg 71%
    21:00 +6°C° 0 mm 1 mps 706 mmHg 72%
    22:00 +6°C° 0 mm 1 mps 706 mmHg 73%
    23:00 +6°C° 0 mm 1 mps 707 mmHg 75%

    25 January, Friday

    Time Temperature Precipitation Wind Pressure Humidity
    00:00 +5°C° 0 mm 1 mps 707 mmHg 76%
    01:00 +5°C° 0 mm 1 mps 706 mmHg 77%
    02:00 +5°C° 0 mm 1 mps 706 mmHg 77%
    03:00 +5°C° 0 mm 1 mps 706 mmHg 78%
    04:00 +5°C° 0 mm 1 mps 706 mmHg 78%
    05:00 +3°C° 0 mm 2 mps 706 mmHg 77%
    06:00 +3°C° 0 mm 2 mps 706 mmHg 77%
    07:00 +4°C° 0 mm 2 mps 707 mmHg 74%
    08:00 +5°C° 0 mm 2 mps 707 mmHg 72%
    09:00 +6°C° 0 mm 2 mps 708 mmHg 69%
    10:00 +8°C° 0 mm 2 mps 708 mmHg 64%
    11:00 +10°C° 0 mm 3 mps 708 mmHg 59%
    12:00 +12°C° 0 mm 3 mps 709 mmHg 55%
    13:00 +13°C° 0 mm 3 mps 708 mmHg 53%
    14:00 +13°C° 0 mm 3 mps 708 mmHg 51%
    15:00 +14°C° 0 mm 4 mps 708 mmHg 50%
    16:00 +12°C° 0 mm 3 mps 708 mmHg 56%
    17:00 +10°C° 0 mm 3 mps 708 mmHg 63%
    18:00 +9°C° 0 mm 2 mps 708 mmHg 69%
    19:00 +8°C° 0 mm 2 mps 708 mmHg 71%
    20:00 +8°C° 0 mm 2 mps 708 mmHg 72%
    21:00 +8°C° 0 mm 1 mps 708 mmHg 74%
    22:00 +8°C° 0 mm 1 mps 708 mmHg 74%
    23:00 +8°C° 0 mm 1 mps 708 mmHg 74%

    26 January, Saturday

    Time Temperature Precipitation Wind Pressure Humidity
    00:00 +7°C° 0 mm 1 mps 708 mmHg 75%
    01:00 +7°C° 0 mm 1 mps 708 mmHg 75%
    02:00 +7°C° 0 mm 1 mps 708 mmHg 76%
    03:00 +7°C° 0 mm 1 mps 707 mmHg 76%
    04:00 +6°C° 0 mm 1 mps 707 mmHg 76%
    05:00 +6°C° 0 mm 1 mps 707 mmHg 76%
    06:00 +6°C° 0 mm 1 mps 707 mmHg 77%
    07:00 +7°C° 0 mm 1 mps 707 mmHg 73%
    08:00 +7°C° 0 mm 0 mps 708 mmHg 69%
    09:00 +9°C° 0 mm 0 mps 708 mmHg 65%
    10:00 +11°C° 0 mm 1 mps 708 mmHg 59%
    11:00 +13°C° 0 mm 1 mps 708 mmHg 54%
    12:00 +14°C° 0 mm 1 mps 708 mmHg 49%
    13:00 +15°C° 0 mm 2 mps 708 mmHg 47%
    14:00 +15°C° 0 mm 2 mps 707 mmHg 46%
    15:00 +15°C° 0 mm 2 mps 706 mmHg 44%
    16:00 +13°C° 0 mm 2 mps 706 mmHg 52%
    17:00 +12°C° 0 mm 2 mps 706 mmHg 60%
    18:00 +9°C° 0 mm 2 mps 705 mmHg 68%
    19:00 +8°C° 0 mm 2 mps 705 mmHg 72%
    20:00 +9°C° 0 mm 1 mps 705 mmHg 76%
    21:00 +8°C° 0 mm 1 mps 705 mmHg 80%
    22:00 +8°C° 0 mm 1 mps 705 mmHg 83%
    23:00 +8°C° 0 mm 1 mps 705 mmHg 85%
    Show more